Location: Most
(50.5133°N, 13.6207°E)
Time: 14:25:14
(UTC+02:00)

ISS - Pass Details

Date: 20 September 2017
Orbit: 402 x 407 km, 51.6° (Epoch: 21 September)

Event Time Altitude Azimuth Distance (km) Brightness Sun altitude
Exits shadow 05:48:53 12° 226° (SW) 1,338 -1.7 -10.2°
Maximum altitude 05:49:01 12° 223° (SW) 1,336 -1.7 -10.2°
Drops below altitude 10° 05:50:25 10° 197° (SSW) 1,463 -1.3 -10.0°
Sets 05:53:28 0° 166° (SSE) 2,317 0.0 -9.5°
